DW4219 Weather Reports


Display with metric or nautical units.
time (UTC)temp
F
wind
direction
speed
MPH
gust
MPH
rain 1hr
in
rain 24hr
in
rain mn
in
humidity
%
barometer
mb
20260831050056 72 206 3.0 6.0 0.00 0.01 0.01 34 1008.8
20260831044554 72 225 3.0 7.0 0.00 0.01 0.01 33 1008.7
20260831043053 73 210 6.0 9.0 0.00 0.01 0.01 33 1008.6
20260831041555 73 169 5.0 7.0 0.00 0.01 0.01 33 1008.4
20260831040053 72 222 0.0 4.0 0.00 0.01 0.01 34 1008.2
20260831034553 73 217 1.0 4.0 0.00 0.01 0.01 33 1008.0
20260831033105 73 198 0.0 3.0 0.00 0.01 0.01 33 1007.9
20260831031551 74 190 0.0 2.0 0.00 0.01 0.01 33 1007.8
20260831030050 75 194 1.0 4.0 0.00 0.01 0.01 32 1007.6
20260831024549 76 212 2.0 7.0 0.00 0.01 0.01 31 1007.5
20260831023048 77 203 4.0 8.0 0.00 0.01 0.01 29 1007.4
20260831021548 78 169 5.0 10.0 0.00 0.01 0.01 29 1007.1
20260831020104 79 216 6.0 13.0 0.00 0.01 0.01 28 1007.2
20260831014546 79 198 9.0 15.0 0.00 0.01 0.01 28 1007.1
20260831013046 79 226 9.0 16.0 0.00 0.01 0.01 27 1007.1
20260831011547 80 227 6.0 16.0 0.00 0.01 0.01 28 1007.3
20260831010045 80 229 9.0 19.0 0.00 0.01 0.01 27 1007.3
20260831004545 81 207 11.0 18.0 0.00 0.01 0.01 26 1007.3
20260831003045 82 251 9.0 19.0 0.00 0.01 0.01 24 1007.3
20260831001544 83 250 7.0 19.0 0.00 0.01 0.01 23 1007.2
20260831000046 81 236 9.0 16.0 0.00 0.01 0.01 25 1007.2
20260830234541 82 229 11.0 19.0 0.00 0.01 0.01 24 1007.0
20260830233045 83 222 9.0 23.0 0.00 0.01 0.01 24 1006.9
20260830231540 83 235 12.0 19.0 0.00 0.01 0.01 25 1006.9
20260830230040 83 245 7.0 26.0 0.00 0.01 0.01 25 1006.6
20260830224538 84 247 10.0 20.0 0.00 0.01 0.01 24 1006.6
20260830223037 84 184 14.0 26.0 0.00 0.01 0.01 25 1006.8
20260830221540 84 242 13.0 23.0 0.00 0.01 0.01 25 1006.7
20260830220035 84 192 10.0 26.0 0.00 0.01 0.01 26 1006.8
20260830214534 84 232 9.0 28.0 0.00 0.01 0.01 26 1006.9
20260830213036 84 184 12.0 21.0 0.00 0.01 0.01 27 1007.2
20260830211530 84 211 13.0 22.0 0.00 0.01 0.01 27 1007.2
20260830210028 83 246 16.0 28.0 0.00 0.01 0.01 27 1007.2
20260830204527 84 202 12.0 21.0 0.00 0.01 0.01 27 1007.3
20260830203025 84 241 9.0 24.0 0.00 0.01 0.01 27 1007.5
20260830201523 84 211 14.0 25.0 0.00 0.01 0.01 28 1007.4
20260830200020 83 179 16.0 26.0 0.00 0.01 0.01 28 1007.7
20260830194519 83 243 15.0 29.0 0.00 0.01 0.01 29 1007.7
20260830193018 84 221 15.0 21.0 0.00 0.01 0.01 29 1007.7
20260830191517 83 229 12.0 25.0 0.00 0.01 0.01 29 1007.8
20260830190018 83 221 16.0 23.0 0.00 0.01 0.01 29 1007.9
20260830184511 82 207 13.0 23.0 0.00 0.01 0.01 31 1008.1
20260830183007 81 226 9.0 18.0 0.00 0.01 0.01 33 1008.2
20260830181607 80 228 12.0 24.0 0.00 0.01 0.01 34 1008.3
20260830180005 81 240 9.0 19.0 0.00 0.01 0.01 35 1008.5
20260830174505 81 202 12.0 24.0 0.00 0.01 0.01 35 1008.5
20260830173127 80 184 11.0 21.0 0.00 0.01 0.01 36 1008.4
20260830171607 79 236 12.0 18.0 0.00 0.01 0.01 37 1008.4
20260830170056 79 204 8.0 18.0 0.00 0.01 0.01 38 1008.4
20260830164555 79 239 8.0 17.0 0.00 0.01 0.01 38 1008.4
20260830163054 78 222 9.0 15.0 0.00 0.01 0.01 39 1008.3
20260830161603 78 221 9.0 16.0 0.00 0.01 0.01 39 1008.4
20260830160056 77 203 7.0 14.0 0.00 0.01 0.01 42 1008.3
20260830154545 75 187 7.0 12.0 0.00 0.01 0.01 45 1008.3
20260830153042 70 323 1.0 4.0 0.00 0.01 0.01 64 1008.3
20260830151552 68 35 1.0 3.0 0.00 0.01 0.01 71 1008.4
20260830150041 65 70 1.0 4.0 0.00 0.01 0.01 74 1008.4
20260830144549 64 47 1.0 4.0 0.00 0.01 0.01 75 1008.4
20260830143038 63 43 1.0 3.0 0.00 0.01 0.01 75 1008.3
20260830141536 63 50 1.0 2.0 0.00 0.01 0.01 74 1008.2
20260830140036 63 81 0.0 3.0 0.00 0.01 0.01 75 1008.1
20260830134534 62 34 0.0 2.0 0.00 0.01 0.01 74 1007.9
20260830133034 61 283 0.0 0.0 0.00 0.01 0.01 73 1007.7
20260830131530 60 283 0.0 0.0 0.00 0.01 0.01 75 1007.4
20260830130029 60 283 0.0 0.0 0.00 0.01 0.01 79 1007.3
20260830124534 60 283 0.0 1.0 0.00 0.01 0.01 79 1007.3
20260830123026 60 141 0.0 0.0 0.00 0.01 0.01 78 1006.9
20260830121524 61 96 0.0 2.0 0.00 0.01 0.01 77 1007.0
20260830120023 60 42 0.0 3.0 0.00 0.01 0.01 76 1006.9
20260830114520 62 333 4.0 6.0 0.00 0.01 0.01 72 1006.7
20260830113022 63 84 1.0 5.0 0.00 0.01 0.01 68 1006.6
20260830111520 62 87 2.0 5.0 0.00 0.01 0.01 68 1006.6
20260830110017 61 9 1.0 2.0 0.01 0.01 0.01 71 1006.6
20260830104514 61 118 0.0 1.0 0.01 0.01 0.01 71 1006.4
20260830103028 61 321 0.0 0.0 0.01 0.01 0.01 63 1006.3
20260830101512 61 337 0.0 1.0 0.01 0.01 0.01 70 1006.1
20260830100010 62 217 0.0 1.0 0.00 0.03 0.00 66 1006.1
20260830094506 63 141 0.0 2.0 0.00 0.03 0.00 62 1006.1
20260830093003 63 100 0.0 3.0 0.00 0.03 0.00 58 1006.0
20260830091502 63 26 3.0 5.0 0.00 0.03 0.00 55 1006.0
20260830084557 65 7 0.0 2.0 0.00 0.03 0.00 46 1006.0
20260830083056 67 186 0.0 1.0 0.00 0.03 0.00 46 1006.1
20260830081553 66 284 0.0 4.0 0.00 0.03 0.00 45 1006.1
20260830080054 67 309 0.0 4.0 0.00 0.03 0.00 43 1006.2
20260830074552 67 198 0.0 0.0 0.00 0.03 0.00 45 1006.2
20260830073050 68 249 0.0 1.0 0.00 0.03 0.00 43 1006.1
20260830071545 70 214 1.0 3.0 0.00 0.03 0.00 39 1006.2
20260830070044 70 217 1.0 3.0 0.00 0.03 0.00 39 1006.0
20260830064645 71 195 0.0 2.0 0.00 0.03 0.00 38 1006.0
20260830063044 71 223 0.0 3.0 0.00 0.03 0.00 38 1006.1
20260830061541 70 208 2.0 5.0 0.00 0.03 0.00 39 1006.0
20260830060038 72 160 1.0 4.0 0.00 0.03 0.03 37 1005.9
20260830054537 73 210 1.0 4.0 0.00 0.03 0.03 36 1005.9
20260830053038 73 210 1.0 4.0 0.00 0.03 0.03 36 1006.0
20260830051536 74 217 2.0 5.0 0.00 0.03 0.03 35 1006.2